Weather History for KP28 - April, 2013

Change the Weather History Date:

Friday, April 26, 2013

  Actual Average Record
Temperature  
Mean Temperature 53 °F 60 °F  
Max Temperature 56 °F 72 °F 97 °F (1899)
Min Temperature 49 °F 48 °F 26 °F (1907)
Degree Days  
Heating Degree Days 12 6  
Month to date heating degree days 438 266  
Since 1 July heating degree days 4400 4363  
Cooling Degree Days 0 1  
Month to date cooling degree days 3 18  
Year to date cooling degree days 4 20  
Growing Degree Days 2 (Base 50)    
Moisture  
Dew Point 46 °F    
Average Humidity 70    
Maximum Humidity 96    
Minimum Humidity 43    
Precipitation  
Precipitation 0.24 in 0.10 in 3.15 in (1969)
Month to date precipitation 1.79 2.03  
Year to date precipitation 7.75 6.04  
Snow  
Snow 0.00 in 0.00 in - ()
Month to date snowfall 0.0 0.0  
Since 1 July snowfall 25.0 8.5  
Snow Depth 0.00 in    
Sea Level Pressure  
Sea Level Pressure 30.07 in    
Wind  
Wind Speed 8 mph (ESE)    
Max Wind Speed 21 mph    
Max Gust Speed 26 mph    
T = Trace of Precipitation, MM = Missing Value Source: NWS Daily Summary

Daily Weather History Graph

Daily Weather History Graph

Search for Another Location

Airport or City:

Trip Planner

Search our weather history database for the weather conditions in past years. The results will help you decide how hot, cold, wet, or windy it might be!

Date:

Astronomy

Apr. 26, 2013 Rise Set
Actual Time 6:44 AM CDT 8:19 PM CDT
Civil Twilight 6:17 AM CDT 8:47 PM CDT
Nautical Twilight 5:44 AM CDT 9:20 PM CDT
Astronomical Twilight 5:08 AM CDT 9:55 PM CDT
Moon 9:42 PM CDT 7:14 AM CDT
Length of Visible Light 14h 29m
Length of Day
13h 34m
Full, 99% of the Moon is Illuminated
Apr 26
Full
May 2
Last Quarter
May 9
New
May 17
First Quarter
May 24
Full

Hourly Weather History & Observations

Time (CDT) Temp. Dew Point Humidity Pressure Visibility Wind Dir Wind Speed Gust Speed Precip Events Conditions
12:56 AM 55.9 °F 34.0 °F 44% 30.09 in - South 13.8 mph - N/A   Unknown
1:56 AM 54.0 °F 36.0 °F 51% 30.07 in - SSE 6.9 mph - N/A   Unknown
2:56 AM 55.0 °F 37.9 °F 53% 30.07 in - SSE 5.8 mph - N/A   Unknown
3:56 AM 54.0 °F 39.9 °F 59% 30.04 in - SSE 6.9 mph - N/A   Unknown
4:56 AM 53.1 °F 43.0 °F 69% 30.04 in - South 6.9 mph - N/A   Unknown
5:56 AM 52.0 °F 43.0 °F 71% 30.03 in - SE 4.6 mph - N/A   Unknown
6:56 AM 48.9 °F 46.9 °F 93% 30.04 in - ESE 4.6 mph - 0.17 in   Unknown
7:56 AM 51.1 °F 46.0 °F 83% 30.04 in - SE 8.1 mph - N/A   Unknown
8:56 AM 52.0 °F 46.9 °F 83% 30.04 in - ESE 6.9 mph - N/A   Unknown
9:56 AM 54.0 °F 48.0 °F 80% 30.04 in - ESE 8.1 mph - N/A   Unknown
10:56 AM 53.1 °F 48.0 °F 83% 30.05 in - East 11.5 mph - N/A   Unknown
11:56 AM 54.0 °F 48.0 °F 80% 30.06 in - ESE 10.4 mph 20.7 mph N/A   Unknown
12:56 PM 54.0 °F 48.0 °F 80% 30.06 in - ESE 11.5 mph 21.9 mph N/A   Unknown
1:56 PM 52.0 °F 48.9 °F 89% 30.06 in - ESE 8.1 mph 20.7 mph N/A   Unknown
2:56 PM 51.1 °F 50.0 °F 96% 30.06 in - ESE 11.5 mph 23.0 mph 0.01 in   Unknown
3:56 PM 52.0 °F 48.9 °F 89% 30.05 in - ESE 11.5 mph 19.6 mph N/A   Unknown
4:56 PM 51.1 °F 48.0 °F 89% 30.06 in - ESE 10.4 mph 16.1 mph N/A   Unknown
5:56 PM 51.1 °F 48.0 °F 89% 30.05 in - East 5.8 mph - N/A   Unknown
6:56 PM 50.0 °F 48.9 °F 96% 30.09 in - NE 8.1 mph - 0.01 in   Unknown
7:56 PM 50.0 °F 48.9 °F 96% 30.10 in - NE 4.6 mph - 0.03 in   Unknown
8:56 PM 50.0 °F 48.9 °F 96% 30.04 in - ENE 13.8 mph - 0.01 in   Unknown
9:56 PM 50.0 °F 48.9 °F 96% 30.09 in - East 8.1 mph - 0.01 in   Unknown
10:56 PM 50.0 °F 48.9 °F 96% 30.15 in - NNE 4.6 mph - N/A   Unknown
11:56 PM 50.0 °F 48.9 °F 96% 30.15 in - North 5.8 mph - N/A   Unknown